Regional Weather Roundup
Issued by NWS Wakefield, VA

Home | Current Version | Previous Version | Graphics & Text | Print | Product List | Glossary On
Versions: 1 2 3 4 5 6 7 8 9 10 11 12 13 14 15 16 17 18 19 20 21 22 23 24 25 26 27 28 29 30 31 32 33 34 35 36 37 38 39 40 41 42 43 44 45 46 47 48 49 50
000
ASUS41 KAKQ 280615
RWRAKQ

REGIONAL WEATHER ROUNDUP
NATIONAL WEATHER SERVICE WAKEFIELD VA
200 AM EDT WED SEP 28 2016

Note: "fair" indicates few or no clouds below 12,000 feet with no
significant weather and/or obstructions to visibility. * = Denotes
station may not report precipitation (e.g., rain,snow,etc.),
thunder or fog.

VAZ042-051-052>054-056-280700-
NORTHERN VIRGINIA

CITY           SKY/WX    TMP DP  RH WIND       PRES   REMARKS
WASH NATIONAL  MOCLDY    65  64  97 NE7       29.96S
DULLES         FOG       63  62  97 CALM      29.96R VSB 1/4
FORT BELVOIR   PTCLDY    60  59  96 CALM      29.95S
QUANTICO       CLOUDY    65  62  90 CALM      29.95S
FREDERICKSBRG* CLOUDY    67  67 100 CALM      29.93F
STAFFORD*      CLOUDY    59  59 100 CALM      29.98F FOG
WARRENTON      FOG       62  58  86 CALM      29.94F VSB 1/4
CULPEPER*      CLOUDY    63  63  99 CALM      29.95F FOG
MANASSAS*      CLOUDY    64  64 100 CALM      29.96S
LEESBURG*      CLOUDY    61  61 100 CALM      29.97S
WINCHESTER     FOG       54  54 100 CALM      29.96  VSB 1
FRONT ROYAL*   FAIR      55  55 100 CALM      29.94S
LURAY*         FAIR     N/A N/A N/A CALM      29.94F
$$

VAZ048-049-060>072-079>083-280700-
CENTRAL AND SOUTH CENTRAL VIRGINIA

CITY           SKY/WX    TMP DP  RH WIND       PRES   REMARKS
RICHMOND       FOG       67  67 100 E5        29.93S VSB 1
CHESTERFIELD*  CLOUDY    70  55  60 E3        29.94S VSB 1/2
PETERSBURG*    FOG      N/A N/A N/A CALM      29.93S VSB 1/2
HANOVER        FOG       67  66  97 CALM      29.95S VSB 3/4
TAPPAHANNOCK*  CLOUDY    67  67 100 CALM      29.95S FOG
QUINTON*       FOG       68  68 100 CALM      29.93R VSB 3/4
CHARLOTTSVILLE LGT RAIN  67  65  93 CALM      29.93F FOG
GORDONSVILLE*  CLOUDY    64  64 100 NE3       29.93F FOG
ORANGE*          N/A     64  64 100 CALM      29.95F FOG
LOUISA*        CLOUDY    70  70 100 CALM      29.92F FOG
BUMPASS*       CLOUDY    67  67 100 E5        29.93F
FARMVILLE*     CLOUDY    70  69  99 CALM      29.91S FOG
CREWE*         CLOUDY    67  67 100 CALM      29.92S VSB 1/4
FORT PICKETT*  CLOUDY    67  63  87 S6        29.92F VSB 3/4
CHASE CITY*    CLOUDY    69  67  94 CALM      29.91F
CLARKSVILLE*   CLOUDY    68  68 100 CALM      29.90F
SOUTH HILL*    CLOUDY    65  65 100 CALM      29.97F
LAWRENCEVILLE* MOCLDY    68  67  97 CALM      29.91F
EMPORIA*       CLOUDY    68  68 100 E3        29.92F
$$

VAZ088>098-280700-
SOUTHEAST VIRGINIA

CITY           SKY/WX    TMP DP  RH WIND       PRES   REMARKS
NORFOLK        MOCLDY    70  68  93 CALM      29.93R
VIRGINIA BEACH CLOUDY    66  65  96 CALM      29.92S
NORFOLK NAVAL  CLOUDY    69  67  93 CALM      29.94S
WEST POINT*    CLOUDY    67  66  99 CALM      29.94S VSB 1/2
SALUDA*        CLOUDY    68  68 100 CALM      29.93S
NEWPORT NEWS   MOCLDY    66  65  96 CALM      29.94R
LANGLEY AFB    CLOUDY    70  69  97 S2        29.93R
FORT EUSTIS    CLOUDY    69  68  96 E1        29.91R
WILLIAMSBURG*  CLOUDY    70  70 100 SE5       29.94S
HR EXEC AP*    FAIR      66  64  94 CALM      29.95S
FRANKLIN*      MOCLDY    67  66  97 CALM      29.93S
US460-WAKEFLD  CLOUDY    67  65  93 CALM      29.92F FOG
$$

VAZ020-022-025-037-045-280700-
WEST CENTRAL AND SOUTHWEST VIRGINIA

CITY           SKY/WX    TMP DP  RH WIND       PRES   REMARKS
STAUNTON*      CLOUDY    58  51  77 CALM      29.96F
WAYNESBORO*    MOCLDY    61  60  96 NW5       29.95F
HOT SPRINGS VA PTCLDY    56  31  38 W3        30.01F
LYNCHBURG      MOCLDY    67  66  97 CALM      29.94S
DANVILLE       LGT RAIN  67  67 100 S5        29.91F
SOUTH BOSTON*  MOCLDY    69  67  94 CALM      29.91S
MARTINSVILLE   CLOUDY    64  64  97 CALM      29.95S FOG
ROANOKE        MOCLDY    64  61  90 W3        29.95F
BLACKSBURG     CLEAR     52  52  99 CALM      30.00F
DUBLIN*        CLEAR     56  56  99 CALM      29.99S
MARION*        CLOUDY    55  54  95 CALM      30.01F FOG
HILLSVILLE*    PTCLDY    61  59  94 CALM      29.98S
RICHLANDS*     FAIR      56  48  74 SE3       30.00S
WISE*          CLEAR     54  34  47 CALM      30.00S
ABINGDON*      CLEAR     58  58 100 CALM      29.97S FOG
$$

MDZ021>025-VAZ099-100-280700-
SOUTHERN MARYLAND AND THE DELMARVA PENINSULA

CITY           SKY/WX    TMP DP  RH WIND       PRES   REMARKS
PATUXENT RIVER CLOUDY    67  65  93 E3        29.95S FOG
BAY BRIDGE APT PTCLDY    61  61 100 MISG      29.97S FOG
LEONARDTOWN    CLOUDY    63  63 100 CALM      29.97R VSB 3/4
DOVER          MOCLDY    58  58 100 CALM      29.97R
GEORGETOWN     CLOUDY    65  63  93 CALM      29.97R
EASTON         NOT AVBL
CAMBRIDGE      PTCLDY    61  61 100 CALM      29.96S
SALISBURY      MOCLDY    66  65  96 CALM      29.96R
OCEAN CITY     CLOUDY    70  67  90 N3        29.96R
WALLOPS ISLAND CLOUDY    70  69  97 CALM      29.95R
ACCOMACK*      CLOUDY    69  67  92 CALM      29.94S FOG
$$

NCZ012>017-030>032-280700-
NORTH CENTRAL AND EASTERN NORTH CAROLINA

CITY           SKY/WX    TMP DP  RH WIND       PRES   REMARKS
ROANOKE RAPIDS FOG       68  68 100 CALM      29.92S VSB 1/4
RALEIGH        CLOUDY    70  68  93 S5        29.91S
ELIZABETH CITY PTCLDY    66  66 100 CALM      29.93R
AHOSKIE*       MOCLDY    66  66  98 CALM      29.93S
EDENTON*       PTCLDY    68  68 100 CALM      29.93S
CURRITUCK*     NOT AVBL
KILL DEVIL HLS PTCLDY    72  71  99 CALM      29.91R
MANTEO         PTCLDY    69  69 100 CALM      29.92R
CAPE HATTERAS  CLEAR     74  72  93 CALM      29.90R
TARBORO*       CLOUDY    70  69  99 CALM      29.93S FOG
GOLDSBORO      PTCLDY    69  69 100 CALM      29.90R
WASHINGTON     PTCLDY    66  66  99 CALM      29.92F
GREENVILLE     PTCLDY    68  68 100 CALM      29.94S
NEW BERN       CLOUDY    69  67  93 CALM      29.93S FOG
WILMINGTON     CLEAR     69  68  96 S3        29.92S
$$

VAZ048-280700-
ELSEWHERE

CITY           SKY/WX    TMP DP  RH WIND       PRES   REMARKS
HARRISBURG PA  CLEAR     55  53  93 E3        29.98R
BALTIMORE      CLOUDY    57  56  96 CALM      29.96S
ANNAPOLIS      PTCLDY    66  64  93 CALM      29.96S
ANDREWS AFB    MOCLDY    59  57  94 E3        29.95S
PHILADELPHIA   PTCLDY    61  57  87 N3        30.00R
HENDERSON NC   CLOUDY    67  66  97 CALM      29.92F FOG
GREENSBORO     CLOUDY    69  68  96 S5        29.91S
ROCKY MOUNT    CLOUDY    69  69 100 SE5       29.91S FOG
$$

VAZ100-280700-
MARINE

STATION/POSITION TIME  TEMP    WIND        PRES    WAVE   SWELL
                       AIR SEA DIR/SP/G            HT/PER HT/PER
                 (UTC) (F)     (DEG/KT/KT) (MB)    (FT/S) (FT/S)
BRANDYWINE LGT   0548           70/  5/  5   N/A
CAPE MAY NJ      0548      72   80/  2/  3 1014.5R
LEWES DE         0548      72   90/  3/  5 1014.5R
OCEAN-CITY-INLET 0548      72   80/  4/  6 1014.7R
WACHAPREAGUE VA  0548      74     CALM     1013.9R
THOMAS POINT MD  0600   67 74  120/  6/  7 1015.9R
GOOSES REEF MD   0600   69 74  100/  8/ 10 1014.9    0
COVE POINT MD    0548          100/  5/  8 1014.8R
SOLOMONS ISLAND  0548      75   60/  5/  5   N/A
BISHOPS HEAD MD  0548      71   60/  6/  7 1014.4R
PINEY POINT MD   0548           70/  5/  6   N/A
POTOMAC MD       0600   71 75   60/ 10/ 12 1013.0    1
CAMBRIDGE MD     0548      74   60/  5/  9 1013.8R
LEWISETTA VA     0548      74   70/  9/ 11 1013.4S
RAPPAHANNOCK LGT 0548          130/  6/  7 1014.2R
STINGRAY PT      0600   75 75  140/  6/  8 1014.1    0
YORK RVR RNG VA  0548          180/  7/  8 1013.0R
YORKTOWN VA      0548      76  210/  2/  4 1013.2R
JAMESTOWN VA     0600   72 76  130/  4/  8   N/A     0
DOMINION TERM VA 0548          140/  4/  6 1013.4S
KIPTOPEKE VA     0548      75  190/  5/  6   N/A
CHES BAY BRIDGE  0548      76  160/  4/  5 1013.4R
CAPE HENRY VA    0548          230/  4/  4   N/A
WILLOUBY STN VA  0548           30/  2/  2   N/A
CAPE HENRY BUOY  0542      75                N/A     3/12   2/12
1ST LANDING BUOY 0600   73 76  210/  2/  4 1013.5    1/ 5
CAPE CHARLES BUO 0556      76                N/A     3/11   2/11
OFFSHORE WE BUOY 0551      75                N/A     3/13   2/13
64NM E OF VA BCH 0550   74 73   30/  4/  4 1012.6F   4/12   3/12
DUCK PIER NC     0548      76   80/  3/  4 1012.6R
44056 DUCK FRF   0541      76                N/A     3/11   2/11
OREGON INLET NC  0548      77   40/  4/  4 1012.5R
HATTERAS NC      0548      77  360/  7/  8 1012.1R
DIAMOND SHLS NC  0550   79 83   50/  8/ 10 1011.8R   5/ 7   5/ 7
CAPE LOOKOUT NC  0600   74     350/  4/  5 1012.6R
$$



USA.gov is the U.S. government's official web portal to all federal, state and local government web resources and services.